Weather History for Ely, MN

Change the Weather History Date:

Monday, January 27, 2014

  Actual Average Record
Temperature  
Mean Temperature -17 °F -  
Max Temperature -9 °F 19 °F 48 °F (2006)
Min Temperature -25 °F 0 °F -29 °F (2009)
Degree Days  
Heating Degree Days 82    
Moisture  
Dew Point -25 °F    
Average Humidity 67    
Maximum Humidity 77    
Minimum Humidity 54    
Precipitation  
Precipitation 0.00 in - - ()
Sea Level Pressure  
Sea Level Pressure 30.05 in    
Wind  
Wind Speed 11 mph (WNW)    
Max Wind Speed 15 mph    
Max Gust Speed 24 mph    
Visibility 9 miles    
Events      
Averages and records for this station are not official NWS values.
T = Trace of Precipitation, MM = Missing Value Source: NWS Daily Summary

Daily Weather History Graph

Daily Weather History Graph

Search for Another Location

Airport:

Trip Planner

Search our weather history database for the weather conditions in past years. The results will help you decide how hot, cold, wet, or windy it might be!

Date:

Astronomy

Jan. 27, 2014 Rise Set
Actual Time 7:40 AM CST 5:00 PM CST
Civil Twilight 7:06 AM CST 5:33 PM CST
Nautical Twilight 6:29 AM CST 6:11 PM CST
Astronomical Twilight 5:53 AM CST 6:47 PM CST
Moon 4:25 AM CST (1/27) 1:43 PM CST (1/27)
Length of Visible Light 10h 26m
Length of Day
9h 19m
Waning Crescent, 14% of the Moon is Illuminated
Jan 27
Waning Crescent
Jan 30
New
Feb 6
First Quarter
Feb 14
Full
Feb 22
Last Quarter

Hourly Weather History & Observations

Time (CST) Temp. Windchill Dew Point Humidity Pressure Visibility Wind Dir Wind Speed Gust Speed Precip Events Conditions
12:13 AM -14.8 °F -30.8 °F -20.2 °F 77% 29.84 in 7.0 mi WNW 6.9 mph - N/A   Clear
12:33 AM -14.8 °F -37.5 °F -20.2 °F 77% 29.85 in 7.0 mi NW 13.8 mph 21.9 mph N/A   Clear
12:53 AM -14.8 °F -36.6 °F -23.8 °F 64% 29.86 in 10.0 mi NW 12.7 mph 18.4 mph N/A   Clear
1:12 AM -14.8 °F -35.6 °F -23.8 °F 64% 29.86 in 10.0 mi NW 11.5 mph 19.6 mph N/A   Clear
1:33 AM -16.6 °F -40.6 °F -23.8 °F 70% 29.87 in 10.0 mi NW 15.0 mph 23.0 mph N/A   Clear
1:53 AM -16.6 °F -39.8 °F -23.8 °F 70% 29.88 in 10.0 mi NW 13.8 mph 21.9 mph N/A   Clear
2:12 AM -16.6 °F -36.8 °F -23.8 °F 70% 29.89 in 10.0 mi NNW 10.4 mph 23.0 mph N/A   Clear
2:33 AM -16.6 °F -36.8 °F -25.6 °F 64% 29.91 in 10.0 mi NW 10.4 mph 20.7 mph N/A   Clear
2:53 AM -18.4 °F -41.2 °F -25.6 °F 70% 29.92 in 7.0 mi NW 12.7 mph 19.6 mph N/A   Clear
3:12 AM -18.4 °F -40.2 °F -25.6 °F 70% 29.93 in 7.0 mi NW 11.5 mph 18.4 mph N/A   Clear
3:33 AM -18.4 °F -36.6 °F -27.4 °F 63% 29.94 in 7.0 mi NW 8.1 mph 17.3 mph N/A   Clear
3:53 AM -18.4 °F -40.2 °F -27.4 °F 63% 29.95 in 7.0 mi WNW 11.5 mph 20.7 mph N/A   Clear
4:12 AM -20.2 °F -38.8 °F -27.4 °F 69% 29.97 in 4.0 mi NW 8.1 mph - N/A   Haze
4:33 AM -20.2 °F -42.4 °F -27.4 °F 69% 29.98 in 5.0 mi WNW 11.5 mph 19.6 mph N/A   Haze
4:53 AM -22.0 °F -41.0 °F -27.4 °F 76% 29.99 in 5.0 mi WNW 8.1 mph - N/A   Haze
5:12 AM -22.0 °F -39.4 °F -29.2 °F 69% 30.00 in 7.0 mi WNW 6.9 mph - N/A   Clear
5:33 AM -22.0 °F -44.7 °F -29.2 °F 69% 30.00 in 2.5 mi WNW 11.5 mph 18.4 mph N/A   Haze
5:52 AM -23.8 °F -46.9 °F -29.2 °F 76% 30.01 in 5.0 mi West 11.5 mph 17.3 mph N/A   Haze
6:13 AM -23.8 °F -43.2 °F -29.2 °F 76% 30.02 in 10.0 mi West 8.1 mph - N/A   Clear
6:33 AM -23.8 °F -41.6 °F -31.0 °F 69% 30.03 in 10.0 mi WNW 6.9 mph - N/A   Clear
6:52 AM -23.8 °F -44.5 °F -31.0 °F 69% 30.03 in 10.0 mi WNW 9.2 mph 17.3 mph N/A   Clear
7:13 AM -25.6 °F -46.8 °F -31.0 °F 76% 30.03 in 10.0 mi West 9.2 mph - N/A   Clear
7:32 AM -25.6 °F -45.4 °F -31.0 °F 76% 30.04 in 10.0 mi West 8.1 mph - N/A   Clear
7:53 AM -25.6 °F -43.8 °F -31.0 °F 76% 30.05 in 10.0 mi West 6.9 mph - N/A   Clear
8:13 AM -25.6 °F -46.8 °F -32.8 °F 69% 30.06 in 10.0 mi West 9.2 mph - N/A   Clear
8:32 AM -23.8 °F -46.9 °F -31.0 °F 69% 30.06 in 10.0 mi West 11.5 mph 16.1 mph N/A   Clear
8:53 AM -23.8 °F -46.9 °F -31.0 °F 69% 30.07 in 4.0 mi West 11.5 mph 18.4 mph N/A   Haze
9:13 AM -22.0 °F -39.4 °F -29.2 °F 69% 30.08 in 4.0 mi WNW 6.9 mph 17.3 mph N/A   Haze
9:33 AM -20.2 °F -41.3 °F -29.2 °F 63% 30.08 in 4.0 mi WNW 10.4 mph 18.4 mph N/A   Haze
9:53 AM -20.2 °F -40.1 °F -29.2 °F 63% 30.09 in 5.0 mi WNW 9.2 mph 17.3 mph N/A   Haze
10:13 AM -18.4 °F -40.2 °F -27.4 °F 63% 30.10 in 7.0 mi WNW 11.5 mph - N/A   Clear
10:33 AM -18.4 °F -37.9 °F -27.4 °F 63% 30.10 in 10.0 mi WNW 9.2 mph 16.1 mph N/A   Clear
10:53 AM -16.6 °F -35.7 °F -25.6 °F 64% 30.10 in 10.0 mi WNW 9.2 mph - N/A   Clear
11:13 AM -16.6 °F -38.9 °F -25.6 °F 64% 30.09 in 10.0 mi WNW 12.7 mph 17.3 mph N/A   Clear
11:33 AM -14.8 °F -37.5 °F -25.6 °F 58% 30.09 in 10.0 mi WNW 13.8 mph 20.7 mph N/A   Clear
11:53 AM -14.8 °F -38.3 °F -23.8 °F 64% 30.09 in 10.0 mi WNW 15.0 mph 20.7 mph N/A   Clear
12:13 PM -13.0 °F -35.2 °F -23.8 °F 59% 30.09 in 10.0 mi WNW 13.8 mph - N/A   Clear
12:33 PM -11.2 °F -32.9 °F -23.8 °F 54% 30.09 in 10.0 mi West 13.8 mph 19.6 mph N/A   Clear
12:53 PM -11.2 °F -32.9 °F -22.0 °F 59% 30.09 in 10.0 mi West 13.8 mph 18.4 mph N/A   Clear
1:13 PM -9.4 °F -30.6 °F -20.2 °F 59% 30.09 in 10.0 mi WNW 13.8 mph 18.4 mph N/A   Clear
1:33 PM -9.4 °F -25.6 °F -20.2 °F 59% 30.09 in 10.0 mi WNW 8.1 mph 16.1 mph N/A   Clear
1:53 PM -9.4 °F -30.6 °F -20.2 °F 59% 30.08 in 10.0 mi WNW 13.8 mph - N/A   Clear
2:13 PM -9.4 °F -29.8 °F -20.2 °F 59% 30.09 in 10.0 mi West 12.7 mph - N/A   Clear
2:33 PM -9.4 °F -27.9 °F -20.2 °F 59% 30.09 in 10.0 mi West 10.4 mph 17.3 mph N/A   Clear
2:52 PM -9.4 °F -31.4 °F -20.2 °F 59% 30.09 in 10.0 mi West 15.0 mph 20.7 mph N/A   Clear
3:13 PM -9.4 °F -30.6 °F -20.2 °F 59% 30.09 in 10.0 mi West 13.8 mph 20.7 mph N/A   Clear
3:33 PM -9.4 °F -26.8 °F -20.2 °F 59% 30.10 in 10.0 mi West 9.2 mph - N/A   Clear
3:53 PM -9.4 °F -30.6 °F -20.2 °F 59% 30.10 in 5.0 mi West 13.8 mph 24.2 mph N/A   Haze
4:12 PM -11.2 °F -33.7 °F -20.2 °F 64% 30.11 in 5.0 mi West 15.0 mph 20.7 mph N/A   Haze
4:33 PM -11.2 °F -32.1 °F -20.2 °F 64% 30.11 in 10.0 mi West 12.7 mph 19.6 mph N/A   Clear
4:52 PM -13.0 °F -33.4 °F -22.0 °F 64% 30.11 in 10.0 mi West 11.5 mph 20.7 mph N/A   Clear
5:13 PM -14.8 °F -34.6 °F -22.0 °F 70% 30.12 in 10.0 mi West 10.4 mph - N/A   Clear
5:33 PM -14.8 °F -35.6 °F -22.0 °F 70% 30.12 in 10.0 mi West 11.5 mph 18.4 mph N/A   Clear
5:52 PM -14.8 °F -34.6 °F -23.8 °F 64% 30.12 in 10.0 mi West 10.4 mph 17.3 mph N/A   Clear
6:13 PM -14.8 °F -34.6 °F -23.8 °F 64% 30.12 in 10.0 mi West 10.4 mph - N/A   Clear
6:33 PM -16.6 °F -35.7 °F -23.8 °F 70% 30.13 in 10.0 mi WNW 9.2 mph 19.6 mph N/A   Clear
6:52 PM -16.6 °F -35.7 °F -23.8 °F 70% 30.12 in 10.0 mi West 9.2 mph - N/A   Clear
7:13 PM -16.6 °F -36.8 °F -23.8 °F 70% 30.12 in 10.0 mi West 10.4 mph - N/A   Clear
7:33 PM -16.6 °F -37.9 °F -23.8 °F 70% 30.13 in 10.0 mi West 11.5 mph 16.1 mph N/A   Clear
7:53 PM -16.6 °F -38.9 °F -23.8 °F 70% 30.13 in 10.0 mi West 12.7 mph - N/A   Clear
8:13 PM -18.4 °F -39.1 °F -25.6 °F 70% 30.13 in 10.0 mi West 10.4 mph - N/A   Clear
8:33 PM -18.4 °F -37.9 °F -25.6 °F 70% 30.12 in 10.0 mi West 9.2 mph - N/A   Clear
8:53 PM -18.4 °F -35.1 °F -25.6 °F 70% 30.12 in 10.0 mi WSW 6.9 mph - N/A   Clear
9:13 PM -20.2 °F -37.3 °F -25.6 °F 76% 30.12 in 10.0 mi West 6.9 mph - N/A   Clear
9:33 PM -20.2 °F -40.1 °F -25.6 °F 76% 30.13 in 10.0 mi West 9.2 mph - N/A   Clear
9:53 PM -20.2 °F -38.8 °F -25.6 °F 76% 30.13 in 10.0 mi West 8.1 mph - N/A   Clear
10:13 PM -20.2 °F -38.8 °F -25.6 °F 76% 30.13 in 10.0 mi West 8.1 mph - N/A   Clear
10:33 PM -20.2 °F -38.8 °F -27.4 °F 69% 30.13 in 10.0 mi West 8.1 mph - N/A   Clear
10:53 PM -20.2 °F -40.1 °F -27.4 °F 69% 30.11 in 10.0 mi West 9.2 mph - N/A   Clear
11:13 PM -20.2 °F -38.8 °F -27.4 °F 69% 30.12 in 10.0 mi West 8.1 mph - N/A   Clear
11:33 PM -20.2 °F -37.3 °F -27.4 °F 69% 30.11 in 10.0 mi WSW 6.9 mph - N/A   Clear
11:53 PM -22.0 °F -39.4 °F -27.4 °F 76% 30.11 in 10.0 mi WSW 6.9 mph - N/A   Clear